Time,TemperatureF,DewpointF,PressureIn,WindDirection,WindDirectionDegrees,WindSpeedMPH,WindSpeedGustMPH,Humidity,HourlyPrecipIn,Conditions,Clouds,dailyrainin,SoftwareType,DateUTC
2013-09-06 00:00:00,67.2,65.1,30.19,SE,125,0.0,0.0,93,0.00,CLR,CLR,0.00,WeatherDisplay:10.37,2013-09-06 04:00:00,
2013-09-06 00:05:00,67.1,65.0,30.19,SE,125,0.0,0.0,93,0.00,CLR,CLR,0.00,WeatherDisplay:10.37,2013-09-06 04:05:00,
2013-09-06 00:10:00,67.0,64.9,30.18,SE,125,0.0,0.0,93,0.00,CLR,CLR,0.00,WeatherDisplay:10.37,2013-09-06 04:10:00,
2013-09-06 00:20:00,66.7,64.6,30.18,SE,125,0.0,1.0,93,0.00,CLR,CLR,0.00,WeatherDisplay:10.37,2013-09-06 04:20:00,
2013-09-06 00:32:00,66.7,64.9,30.18,SE,125,0.0,0.0,94,0.00,CLR,CLR,0.00,WeatherDisplay:10.37,2013-09-06 04:32:00,
2013-09-06 00:40:00,66.3,64.5,30.18,SE,125,0.0,0.0,94,0.00,CLR,CLR,0.00,WeatherDisplay:10.37,2013-09-06 04:40:00,
2013-09-06 00:45:00,66.2,64.4,30.18,SE,125,0.0,0.0,94,0.00,CLR,CLR,0.00,WeatherDisplay:10.37,2013-09-06 04:45:00,
2013-09-06 00:55:00,65.9,64.1,30.18,SE,125,0.0,0.0,94,0.00,CLR,CLR,0.00,WeatherDisplay:10.37,2013-09-06 04:55:00,
2013-09-06 01:05:00,65.7,64.2,30.18,SE,125,0.0,0.0,95,0.00,CLR,CLR,0.00,WeatherDisplay:10.37,2013-09-06 05:05:00,
2013-09-06 01:10:00,65.6,64.2,30.18,SE,125,0.0,0.0,95,0.00,CLR,CLR,0.00,WeatherDisplay:10.37,2013-09-06 05:10:00,
2013-09-06 01:20:00,65.5,64.0,30.18,SE,125,0.0,0.0,95,0.00,CLR,CLR,0.00,WeatherDisplay:10.37,2013-09-06 05:20:00,
2013-09-06 01:30:00,65.4,63.9,30.18,SE,125,0.0,1.0,95,0.00,CLR,CLR,0.00,WeatherDisplay:10.37,2013-09-06 05:30:00,
2013-09-06 01:35:00,65.3,63.8,30.18,SE,125,0.0,1.0,95,0.00,CLR,CLR,0.00,WeatherDisplay:10.37,2013-09-06 05:35:00,
2013-09-06 01:40:00,65.3,63.8,30.18,SE,125,0.0,0.0,95,0.00,CLR,CLR,0.00,WeatherDisplay:10.37,2013-09-06 05:40:00,
2013-09-06 01:50:00,65.2,63.7,30.18,SE,125,0.0,0.0,95,0.00,CLR,CLR,0.00,WeatherDisplay:10.37,2013-09-06 05:50:00,
2013-09-06 02:00:00,65.0,63.5,30.18,SE,125,0.0,0.0,95,0.00,CLR,CLR,0.00,WeatherDisplay:10.37,2013-09-06 06:00:00,
2013-09-06 02:10:00,64.8,63.4,30.18,SE,125,0.0,0.0,95,0.00,CLR,CLR,0.00,WeatherDisplay:10.37,2013-09-06 06:10:00,
2013-09-06 02:15:00,64.7,63.2,30.17,SE,125,0.0,1.0,95,0.00,CLR,CLR,0.00,WeatherDisplay:10.37,2013-09-06 06:15:00,
2013-09-06 02:20:00,64.5,63.1,30.17,SE,125,0.0,0.0,95,0.00,CLR,CLR,0.00,WeatherDisplay:10.37,2013-09-06 06:20:00,
2013-09-06 02:25:00,64.4,62.9,30.17,SE,125,0.0,1.0,95,0.00,CLR,CLR,0.00,WeatherDisplay:10.37,2013-09-06 06:25:00,
2013-09-06 02:30:00,64.3,63.1,30.18,SE,125,0.0,0.0,96,0.00,,,0.00,WeatherDisplay:10.37,2013-09-06 06:30:00,
2013-09-06 02:40:00,64.1,63.0,30.17,SE,125,0.0,0.0,96,0.00,,,0.00,WeatherDisplay:10.37,2013-09-06 06:40:00,
2013-09-06 02:50:00,64.0,62.8,30.17,SE,125,0.0,0.0,96,0.00,,,0.00,WeatherDisplay:10.37,2013-09-06 06:50:00,
2013-09-06 02:55:00,63.9,62.8,30.17,SE,125,0.0,0.0,96,0.00,,,0.00,WeatherDisplay:10.37,2013-09-06 06:55:00,
2013-09-06 03:00:00,63.8,62.6,30.17,SE,125,0.0,0.0,96,0.00,,,0.00,WeatherDisplay:10.37,2013-09-06 07:00:00,
2013-09-06 03:05:00,63.7,62.5,30.17,SE,125,0.0,0.0,96,0.00,,,0.00,WeatherDisplay:10.37,2013-09-06 07:05:00,
2013-09-06 03:10:00,63.6,62.4,30.17,SE,125,0.0,0.0,96,0.00,,,0.00,WeatherDisplay:10.37,2013-09-06 07:10:00,
2013-09-06 03:15:00,63.5,62.3,30.17,SE,125,0.0,0.0,96,0.00,,,0.00,WeatherDisplay:10.37,2013-09-06 07:15:00,
2013-09-06 03:20:00,63.3,62.2,30.17,SE,125,0.0,0.0,96,0.00,,,0.00,WeatherDisplay:10.37,2013-09-06 07:20:00,
2013-09-06 03:25:00,63.3,62.1,30.17,SE,125,0.0,0.0,96,0.00,,,0.00,WeatherDisplay:10.37,2013-09-06 07:25:00,
2013-09-06 03:30:00,63.3,62.4,30.17,SE,125,0.0,0.0,97,0.00,,,0.00,WeatherDisplay:10.37,2013-09-06 07:30:00,
2013-09-06 03:40:00,63.1,62.2,30.17,SE,125,0.0,0.0,97,0.00,,,0.00,WeatherDisplay:10.37,2013-09-06 07:40:00,
2013-09-06 03:45:00,63.0,62.1,30.17,SE,125,0.0,0.0,97,0.00,,,0.00,WeatherDisplay:10.37,2013-09-06 07:45:00,
2013-09-06 03:50:00,62.9,62.0,30.17,SE,125,0.0,0.0,97,0.00,,,0.00,WeatherDisplay:10.37,2013-09-06 07:50:00,
2013-09-06 04:00:00,62.7,61.8,30.17,SE,125,0.0,0.0,97,0.00,,,0.00,WeatherDisplay:10.37,2013-09-06 08:00:00,
2013-09-06 04:05:00,62.6,61.8,30.17,SE,125,0.0,0.0,97,0.00,,,0.00,WeatherDisplay:10.37,2013-09-06 08:05:00,
2013-09-06 04:10:00,62.6,61.7,30.17,SE,125,0.0,0.0,97,0.00,,,0.00,WeatherDisplay:10.37,2013-09-06 08:10:00,
2013-09-06 04:15:00,62.6,61.7,30.17,SE,125,0.0,0.0,97,0.00,,,0.00,WeatherDisplay:10.37,2013-09-06 08:15:00,
2013-09-06 04:25:00,62.6,62.0,30.17,SE,125,0.0,0.0,98,0.00,,,0.00,WeatherDisplay:10.37,2013-09-06 08:25:00,
2013-09-06 04:30:00,62.5,61.6,30.17,SE,125,0.0,0.0,97,0.00,,,0.00,WeatherDisplay:10.37,2013-09-06 08:30:00,
2013-09-06 04:35:00,62.4,61.5,30.17,SE,125,0.0,0.0,97,0.00,,,0.00,WeatherDisplay:10.37,2013-09-06 08:35:00,
2013-09-06 04:40:00,62.4,61.8,30.17,SE,125,0.0,0.0,98,0.00,,,0.00,WeatherDisplay:10.37,2013-09-06 08:40:00,
2013-09-06 04:45:00,62.2,61.3,30.17,SE,125,0.0,0.0,97,0.00,,,0.00,WeatherDisplay:10.37,2013-09-06 08:45:00,
2013-09-06 04:55:00,62.0,61.1,30.17,SE,125,0.0,0.0,97,0.00,,,0.00,WeatherDisplay:10.37,2013-09-06 08:55:00,
2013-09-06 05:00:00,61.9,61.0,30.17,SE,125,0.0,0.0,97,0.00,,,0.00,WeatherDisplay:10.37,2013-09-06 09:00:00,
2013-09-06 05:05:00,61.7,61.1,30.17,SE,125,0.0,0.0,98,0.00,,,0.00,WeatherDisplay:10.37,2013-09-06 09:05:00,
2013-09-06 05:10:00,61.6,60.7,30.17,SE,125,0.0,0.0,97,0.00,,,0.00,WeatherDisplay:10.37,2013-09-06 09:10:00,
2013-09-06 05:20:00,61.6,61.0,30.17,SE,125,0.0,0.0,98,0.00,,,0.00,WeatherDisplay:10.37,2013-09-06 09:20:00,
2013-09-06 05:25:00,61.6,61.0,30.17,SE,125,0.0,0.0,98,0.00,,,0.00,WeatherDisplay:10.37,2013-09-06 09:25:00,
2013-09-06 05:30:00,61.6,61.0,30.17,SE,125,0.0,0.0,98,0.00,,,0.00,WeatherDisplay:10.37,2013-09-06 09:30:00,
2013-09-06 05:35:00,61.6,61.0,30.17,SE,125,0.0,0.0,98,0.00,,,0.00,WeatherDisplay:10.37,2013-09-06 09:35:00,
2013-09-06 05:40:00,61.4,60.9,30.17,SE,125,0.0,1.0,98,0.00,,,0.00,WeatherDisplay:10.37,2013-09-06 09:40:00,
2013-09-06 05:45:00,61.4,60.8,30.17,SE,125,0.0,0.0,98,0.00,,,0.00,WeatherDisplay:10.37,2013-09-06 09:45:00,
2013-09-06 05:55:00,61.3,60.7,30.17,SE,125,0.0,0.0,98,0.00,,,0.00,WeatherDisplay:10.37,2013-09-06 09:55:00,
2013-09-06 06:00:00,61.3,60.7,30.17,SE,125,0.0,0.0,98,0.00,,,0.00,WeatherDisplay:10.37,2013-09-06 10:00:00,
2013-09-06 06:05:00,61.2,60.3,30.17,SE,125,0.0,0.0,97,0.00,,,0.00,WeatherDisplay:10.37,2013-09-06 10:05:00,
2013-09-06 06:10:00,61.1,60.2,30.17,SE,125,0.0,0.0,97,0.00,,,0.00,WeatherDisplay:10.37,2013-09-06 10:10:00,
2013-09-06 06:20:00,60.9,60.0,30.18,SE,125,0.0,0.0,97,0.00,,,0.00,WeatherDisplay:10.37,2013-09-06 10:20:00,
2013-09-06 06:30:00,60.6,59.7,30.17,SE,125,0.0,0.0,97,0.00,,,0.00,WeatherDisplay:10.37,2013-09-06 10:30:00,
2013-09-06 06:35:00,60.6,59.7,30.18,SE,125,0.0,0.0,97,0.00,,,0.00,WeatherDisplay:10.37,2013-09-06 10:35:00,
2013-09-06 06:45:00,60.4,59.5,30.18,SE,125,0.0,0.0,97,0.00,,,0.00,WeatherDisplay:10.37,2013-09-06 10:45:00,
2013-09-06 07:00:00,60.3,59.7,30.18,SE,125,0.0,0.0,98,0.00,,,0.00,WeatherDisplay:10.37,2013-09-06 11:00:00,
2013-09-06 07:05:00,60.2,59.6,30.19,SE,125,0.0,1.0,98,0.00,,,0.00,WeatherDisplay:10.37,2013-09-06 11:05:00,
2013-09-06 07:10:00,60.1,59.2,30.19,SE,125,0.0,0.0,97,0.00,,,0.00,WeatherDisplay:10.37,2013-09-06 11:10:00,
2013-09-06 07:15:00,59.9,59.0,30.19,SE,125,0.0,0.0,97,0.00,,,0.00,WeatherDisplay:10.37,2013-09-06 11:15:00,
2013-09-06 07:20:00,59.7,58.9,30.19,SE,125,0.0,0.0,97,0.00,,,0.00,WeatherDisplay:10.37,2013-09-06 11:20:00,
2013-09-06 07:30:00,59.7,59.1,30.19,SE,125,0.0,0.0,98,0.00,,,0.00,WeatherDisplay:10.37,2013-09-06 11:30:00,
2013-09-06 07:40:00,59.6,59.1,30.19,SE,125,0.0,0.0,98,0.00,,,0.00,WeatherDisplay:10.37,2013-09-06 11:40:00,
2013-09-06 07:45:00,59.6,59.0,30.19,SE,125,0.0,0.0,98,0.00,,,0.00,WeatherDisplay:10.37,2013-09-06 11:45:00,
2013-09-06 07:55:00,59.5,58.6,30.20,SE,125,0.0,0.0,97,0.00,,,0.00,WeatherDisplay:10.37,2013-09-06 11:55:00,
2013-09-06 08:00:00,59.5,58.9,30.20,SE,125,0.0,1.0,98,0.00,,,0.00,WeatherDisplay:10.37,2013-09-06 12:00:00,
2013-09-06 08:05:00,59.4,58.9,30.20,SE,125,0.0,0.0,98,0.00,,,0.00,WeatherDisplay:10.37,2013-09-06 12:05:00,
2013-09-06 08:15:00,59.4,58.5,30.20,SE,125,0.0,0.0,97,0.00,,,0.00,WeatherDisplay:10.37,2013-09-06 12:15:00,
2013-09-06 08:25:00,59.3,58.4,30.20,SE,125,0.0,0.0,97,0.00,,,0.00,WeatherDisplay:10.37,2013-09-06 12:25:00,
2013-09-06 08:30:00,59.3,58.4,30.20,SE,125,0.0,0.0,97,0.00,,,0.00,WeatherDisplay:10.37,2013-09-06 12:30:00,
2013-09-06 08:35:00,59.3,58.4,30.20,SE,125,0.0,0.0,97,0.00,,,0.00,WeatherDisplay:10.37,2013-09-06 12:35:00,
2013-09-06 08:40:00,59.3,58.7,30.20,SE,125,0.0,0.0,98,0.00,,,0.00,WeatherDisplay:10.37,2013-09-06 12:40:00,
2013-09-06 08:50:00,59.3,58.7,30.20,SE,125,0.0,1.0,98,0.00,,,0.00,WeatherDisplay:10.37,2013-09-06 12:50:00,
2013-09-06 08:55:00,59.3,58.7,30.21,SE,125,0.0,0.0,98,0.00,,,0.00,WeatherDisplay:10.37,2013-09-06 12:55:00,
2013-09-06 09:00:00,59.3,58.7,30.21,SE,125,0.0,0.0,98,0.00,,,0.00,WeatherDisplay:10.37,2013-09-06 13:00:00,
2013-09-06 09:10:00,59.5,58.9,30.20,SE,125,0.0,0.0,98,0.00,,,0.00,WeatherDisplay:10.37,2013-09-06 13:10:00,
2013-09-06 09:15:00,59.9,59.3,30.21,SE,125,0.0,0.0,98,0.00,,,0.00,WeatherDisplay:10.37,2013-09-06 13:15:00,
2013-09-06 09:20:00,60.1,59.8,30.21,SE,125,0.0,0.0,99,0.00,,,0.00,WeatherDisplay:10.37,2013-09-06 13:20:00,
2013-09-06 09:25:00,60.1,59.5,30.21,SE,125,0.0,0.0,98,0.00,,,0.00,WeatherDisplay:10.37,2013-09-06 13:25:00,
2013-09-06 09:30:00,60.2,59.6,30.21,SE,125,0.0,1.0,98,0.00,,,0.00,WeatherDisplay:10.37,2013-09-06 13:30:00,
2013-09-06 09:35:00,60.3,59.8,30.21,SE,125,0.0,0.0,98,0.00,,,0.00,WeatherDisplay:10.37,2013-09-06 13:35:00,
2013-09-06 09:40:00,60.6,60.3,30.21,SE,125,0.0,0.0,99,0.00,,,0.00,WeatherDisplay:10.37,2013-09-06 13:40:00,
2013-09-06 09:45:00,60.8,60.5,30.20,SE,125,0.0,0.0,99,0.00,,,0.00,WeatherDisplay:10.37,2013-09-06 13:45:00,
2013-09-06 09:55:00,61.3,61.0,30.21,SE,125,0.0,0.0,99,0.00,,,0.00,WeatherDisplay:10.37,2013-09-06 13:55:00,
2013-09-06 10:00:00,61.4,61.1,30.21,SE,125,0.0,0.0,99,0.00,,,0.00,WeatherDisplay:10.37,2013-09-06 14:00:00,
2013-09-06 10:10:00,61.6,61.0,30.21,SE,125,0.0,0.0,98,0.00,,,0.00,WeatherDisplay:10.37,2013-09-06 14:10:00,
2013-09-06 10:15:00,61.6,61.0,30.21,SE,125,0.0,0.0,98,0.00,,,0.00,WeatherDisplay:10.37,2013-09-06 14:15:00,
2013-09-06 10:20:00,61.8,61.5,30.21,SE,125,0.0,1.0,99,0.00,,,0.00,WeatherDisplay:10.37,2013-09-06 14:20:00,
2013-09-06 10:25:00,62.0,61.7,30.21,SE,125,0.0,0.0,99,0.00,,,0.00,WeatherDisplay:10.37,2013-09-06 14:25:00,
2013-09-06 10:30:00,62.2,61.9,30.21,SE,125,0.0,0.0,99,0.00,,,0.00,WeatherDisplay:10.37,2013-09-06 14:30:00,
2013-09-06 10:45:00,62.9,62.6,30.22,SE,125,0.0,1.0,99,0.00,,,0.00,WeatherDisplay:10.37,2013-09-06 14:45:00,
2013-09-06 10:50:00,63.2,62.9,30.22,SE,125,0.0,1.0,99,0.00,,,0.00,WeatherDisplay:10.37,2013-09-06 14:50:00,
2013-09-06 11:00:00,63.6,63.0,30.22,SE,125,0.0,0.0,98,0.00,,,0.00,WeatherDisplay:10.37,2013-09-06 15:00:00,
2013-09-06 11:10:00,64.0,63.1,30.22,SE,125,0.0,0.0,97,0.00,,,0.00,WeatherDisplay:10.37,2013-09-06 15:10:00,
2013-09-06 11:15:00,64.3,63.1,30.22,SE,125,0.0,1.0,96,0.00,,,0.00,WeatherDisplay:10.37,2013-09-06 15:15:00,
2013-09-06 11:20:00,64.5,63.3,30.22,SE,125,0.0,0.0,96,0.00,,,0.00,WeatherDisplay:10.37,2013-09-06 15:20:00,
2013-09-06 11:30:00,65.0,63.3,30.22,SE,125,0.0,1.0,94,0.00,CLR,CLR,0.00,WeatherDisplay:10.37,2013-09-06 15:30:00,
2013-09-06 11:35:00,65.3,63.2,30.22,SE,125,0.0,1.0,93,0.00,CLR,CLR,0.00,WeatherDisplay:10.37,2013-09-06 15:35:00,
2013-09-06 11:40:00,65.7,63.6,30.22,SE,125,0.0,1.0,93,0.00,CLR,CLR,0.00,WeatherDisplay:10.37,2013-09-06 15:40:00,
2013-09-06 11:50:00,66.4,64.3,30.22,SE,125,0.0,1.0,93,0.00,CLR,CLR,0.00,WeatherDisplay:10.37,2013-09-06 15:50:00,
2013-09-06 11:55:00,66.7,64.3,30.22,SE,125,0.0,0.0,92,0.00,CLR,CLR,0.00,WeatherDisplay:10.37,2013-09-06 15:55:00,
2013-09-06 12:00:00,66.9,64.5,30.22,SE,125,0.0,0.0,92,0.00,CLR,CLR,0.00,WeatherDisplay:10.37,2013-09-06 16:00:00,
2013-09-06 12:10:00,67.3,64.6,30.21,SE,125,0.0,0.0,91,0.00,CLR,CLR,0.00,WeatherDisplay:10.37,2013-09-06 16:10:00,
2013-09-06 12:20:00,67.9,65.2,30.21,SE,125,0.0,1.0,91,0.00,CLR,CLR,0.00,WeatherDisplay:10.37,2013-09-06 16:20:00,
2013-09-06 12:30:00,68.7,65.3,30.21,SE,125,0.0,0.0,89,0.00,CLR,CLR,0.00,WeatherDisplay:10.37,2013-09-06 16:30:00,
2013-09-06 12:40:00,69.9,65.1,30.20,SE,125,0.0,1.0,85,0.00,CLR,CLR,0.00,WeatherDisplay:10.37,2013-09-06 16:40:00,
2013-09-06 12:45:00,70.6,66.3,30.20,SE,125,0.0,1.0,86,0.00,CLR,CLR,0.00,WeatherDisplay:10.37,2013-09-06 16:45:00,
2013-09-06 12:55:00,72.1,66.0,30.20,SE,125,0.0,1.0,81,0.00,CLR,CLR,0.00,WeatherDisplay:10.37,2013-09-06 16:55:00,
2013-09-06 13:05:00,73.4,66.5,30.20,ENE,63,0.0,1.0,79,0.00,CLR,CLR,0.00,WeatherDisplay:10.37,2013-09-06 17:05:00,
2013-09-06 13:10:00,73.9,67.0,30.20,NE,41,0.0,1.0,79,0.00,CLR,CLR,0.00,WeatherDisplay:10.37,2013-09-06 17:10:00,
2013-09-06 13:15:00,74.6,67.3,30.20,South,186,2.0,6.0,78,0.00,CLR,CLR,0.00,WeatherDisplay:10.37,2013-09-06 17:15:00,
2013-09-06 13:20:00,75.2,65.6,30.19,SSW,205,1.0,6.0,72,0.00,CLR,CLR,0.00,WeatherDisplay:10.37,2013-09-06 17:20:00,
2013-09-06 13:25:00,76.0,65.5,30.19,SW,231,1.0,6.0,70,0.00,CLR,CLR,0.00,WeatherDisplay:10.37,2013-09-06 17:25:00,
2013-09-06 13:30:00,76.7,66.6,30.18,South,177,0.0,7.0,71,0.00,CLR,CLR,0.00,WeatherDisplay:10.37,2013-09-06 17:30:00,
2013-09-06 13:40:00,77.7,65.5,30.18,SSW,196,0.0,3.0,66,0.00,CLR,CLR,0.00,WeatherDisplay:10.37,2013-09-06 17:40:00,
2013-09-06 13:45:00,78.2,65.9,30.18,SW,214,0.0,1.0,66,0.00,CLR,CLR,0.00,WeatherDisplay:10.37,2013-09-06 17:45:00,
2013-09-06 13:50:00,78.5,67.5,30.18,SSW,213,0.0,2.0,69,0.00,CLR,CLR,0.00,WeatherDisplay:10.37,2013-09-06 17:50:00,
2013-09-06 14:00:00,78.9,66.6,30.18,SSW,212,0.0,6.0,66,0.00,CLR,CLR,0.00,WeatherDisplay:10.37,2013-09-06 18:00:00,
2013-09-06 14:05:00,79.1,65.9,30.18,SW,215,0.0,6.0,64,0.00,CLR,CLR,0.00,WeatherDisplay:10.37,2013-09-06 18:05:00,
2013-09-06 14:15:00,79.2,66.9,30.17,SW,219,0.0,3.0,66,0.00,CLR,CLR,0.00,WeatherDisplay:10.37,2013-09-06 18:15:00,
2013-09-06 14:25:00,79.3,66.1,30.17,SSW,213,0.0,3.0,64,0.00,CLR,CLR,0.00,WeatherDisplay:10.37,2013-09-06 18:25:00,
2013-09-06 14:30:00,79.3,67.4,30.17,SSW,211,0.0,2.0,67,0.00,CLR,CLR,0.00,WeatherDisplay:10.37,2013-09-06 18:30:00,
2013-09-06 14:35:00,79.4,66.6,30.17,SSW,199,1.0,6.0,65,0.00,CLR,CLR,0.00,WeatherDisplay:10.37,2013-09-06 18:35:00,
2013-09-06 14:40:00,79.4,67.1,30.17,SSW,198,0.0,1.0,66,0.00,CLR,CLR,0.00,WeatherDisplay:10.37,2013-09-06 18:40:00,
2013-09-06 14:45:00,79.5,67.1,30.17,SSW,199,0.0,1.0,66,0.00,CLR,CLR,0.00,WeatherDisplay:10.37,2013-09-06 18:45:00,
2013-09-06 14:55:00,79.4,67.0,30.17,SSW,193,0.0,2.0,66,0.00,CLR,CLR,0.00,WeatherDisplay:10.37,2013-09-06 18:55:00,
2013-09-06 15:00:00,79.4,66.6,30.16,SSW,212,0.0,4.0,65,0.00,CLR,CLR,0.00,WeatherDisplay:10.37,2013-09-06 19:00:00,
2013-09-06 15:10:00,79.3,67.8,30.16,West,260,0.0,2.0,68,0.00,CLR,CLR,0.00,WeatherDisplay:10.37,2013-09-06 19:10:00,
2013-09-06 15:15:00,79.3,67.0,30.16,SSW,203,1.0,6.0,66,0.00,CLR,CLR,0.00,WeatherDisplay:10.37,2013-09-06 19:15:00,
2013-09-06 15:25:00,79.3,67.8,30.16,SW,225,0.0,1.0,68,0.00,CLR,CLR,0.00,WeatherDisplay:10.37,2013-09-06 19:25:00,
2013-09-06 15:30:00,79.3,68.2,30.16,SW,230,0.0,6.0,69,0.00,CLR,CLR,0.00,WeatherDisplay:10.37,2013-09-06 19:30:00,
2013-09-06 15:40:00,79.2,66.0,30.15,SW,233,0.0,1.0,64,0.00,CLR,CLR,0.00,WeatherDisplay:10.37,2013-09-06 19:40:00,
2013-09-06 15:45:00,79.2,67.7,30.15,SSW,207,0.0,3.0,68,0.00,CLR,CLR,0.00,WeatherDisplay:10.37,2013-09-06 19:45:00,
2013-09-06 15:50:00,79.2,66.9,30.15,SSW,206,0.0,1.0,66,0.00,CLR,CLR,0.00,WeatherDisplay:10.37,2013-09-06 19:50:00,
2013-09-06 16:00:00,79.3,66.1,30.14,South,184,2.0,7.0,64,0.00,CLR,CLR,0.00,WeatherDisplay:10.37,2013-09-06 20:00:00,
2013-09-06 16:05:00,79.4,66.6,30.14,South,183,1.0,7.0,65,0.00,CLR,CLR,0.00,WeatherDisplay:10.37,2013-09-06 20:05:00,
2013-09-06 16:15:00,79.5,67.6,30.14,South,171,0.0,6.0,67,0.00,CLR,CLR,0.00,WeatherDisplay:10.37,2013-09-06 20:15:00,
2013-09-06 16:20:00,79.5,68.0,30.14,South,170,0.0,1.0,68,0.00,CLR,CLR,0.00,WeatherDisplay:10.37,2013-09-06 20:20:00,
2013-09-06 16:25:00,79.5,67.6,30.14,South,172,0.0,1.0,67,0.00,CLR,CLR,0.00,WeatherDisplay:10.37,2013-09-06 20:25:00,
2013-09-06 16:35:00,79.3,67.4,30.14,South,176,0.0,1.0,67,0.00,CLR,CLR,0.00,WeatherDisplay:10.37,2013-09-06 20:35:00,
2013-09-06 16:40:00,79.1,66.8,30.14,South,176,0.0,1.0,66,0.00,CLR,CLR,0.00,WeatherDisplay:10.37,2013-09-06 20:40:00,
2013-09-06 16:45:00,78.9,66.6,30.14,South,176,0.0,1.0,66,0.00,CLR,CLR,0.00,WeatherDisplay:10.37,2013-09-06 20:45:00,
2013-09-06 16:50:00,78.6,66.3,30.14,South,176,0.0,1.0,66,0.00,CLR,CLR,0.00,WeatherDisplay:10.37,2013-09-06 20:50:00,
2013-09-06 16:55:00,78.4,66.1,30.13,South,177,0.0,2.0,66,0.00,CLR,CLR,0.00,WeatherDisplay:10.37,2013-09-06 20:55:00,
2013-09-06 17:00:00,78.3,66.4,30.13,SSW,194,0.0,3.0,67,0.00,CLR,CLR,0.00,WeatherDisplay:10.37,2013-09-06 21:00:00,
2013-09-06 17:10:00,78.2,67.6,30.13,SW,228,0.0,1.0,70,0.00,CLR,CLR,0.00,WeatherDisplay:10.37,2013-09-06 21:10:00,
2013-09-06 17:20:00,78.1,67.9,30.13,SW,232,1.0,6.0,71,0.00,CLR,CLR,0.00,WeatherDisplay:10.37,2013-09-06 21:20:00,
2013-09-06 17:25:00,78.1,67.1,30.12,SW,236,0.0,3.0,69,0.00,CLR,CLR,0.00,WeatherDisplay:10.37,2013-09-06 21:25:00,
2013-09-06 17:30:00,78.1,67.1,30.12,WSW,241,0.0,1.0,69,0.00,CLR,CLR,0.00,WeatherDisplay:10.37,2013-09-06 21:30:00,
2013-09-06 17:35:00,78.1,67.1,30.12,WSW,237,0.0,1.0,69,0.00,CLR,CLR,0.00,WeatherDisplay:10.37,2013-09-06 21:35:00,
2013-09-06 17:40:00,78.1,67.1,30.13,WSW,237,0.0,1.0,69,0.00,CLR,CLR,0.00,WeatherDisplay:10.37,2013-09-06 21:40:00,
2013-09-06 17:45:00,78.2,68.4,30.12,WSW,237,0.0,1.0,72,0.00,CLR,CLR,0.00,WeatherDisplay:10.37,2013-09-06 21:45:00,
2013-09-06 17:55:00,78.2,67.6,30.12,SW,231,0.0,1.0,70,0.00,CLR,CLR,0.00,WeatherDisplay:10.37,2013-09-06 21:55:00,
2013-09-06 18:00:00,78.1,67.1,30.12,SW,231,0.0,1.0,69,0.00,CLR,CLR,0.00,WeatherDisplay:10.37,2013-09-06 22:00:00,
2013-09-06 18:10:00,77.8,66.8,30.12,SSW,207,2.0,8.0,69,0.00,CLR,CLR,0.00,WeatherDisplay:10.37,2013-09-06 22:10:00,
2013-09-06 18:20:00,77.4,67.3,30.12,SSW,208,0.0,1.0,71,0.00,CLR,CLR,0.00,WeatherDisplay:10.37,2013-09-06 22:20:00,
2013-09-06 18:30:00,77.2,67.9,30.12,SSW,208,0.0,1.0,73,0.00,CLR,CLR,0.00,WeatherDisplay:10.37,2013-09-06 22:30:00,
2013-09-06 18:40:00,77.0,68.1,30.13,SSW,211,1.0,7.0,74,0.00,CLR,CLR,0.00,WeatherDisplay:10.37,2013-09-06 22:40:00,
2013-09-06 18:45:00,76.9,67.2,30.12,SW,219,0.0,7.0,72,0.00,CLR,CLR,0.00,WeatherDisplay:10.37,2013-09-06 22:45:00,
2013-09-06 18:55:00,76.5,67.6,30.13,SSW,194,0.0,0.0,74,0.00,CLR,CLR,0.00,WeatherDisplay:10.37,2013-09-06 22:55:00,
2013-09-06 19:00:00,76.3,68.2,30.13,SSW,193,0.0,0.0,76,0.00,CLR,CLR,0.00,WeatherDisplay:10.37,2013-09-06 23:00:00,
2013-09-06 19:10:00,75.8,66.9,30.12,SW,233,0.0,2.0,74,0.00,CLR,CLR,0.00,WeatherDisplay:10.37,2013-09-06 23:10:00,
2013-09-06 19:20:00,75.5,67.0,30.12,NW,306,0.0,2.0,75,0.00,CLR,CLR,0.00,WeatherDisplay:10.37,2013-09-06 23:20:00,
2013-09-06 19:25:00,75.3,66.9,30.13,NW,313,0.0,5.0,75,0.00,CLR,CLR,0.00,WeatherDisplay:10.37,2013-09-06 23:25:00,
2013-09-06 19:30:00,75.2,67.1,30.12,NW,320,0.0,2.0,76,0.00,CLR,CLR,0.00,WeatherDisplay:10.37,2013-09-06 23:30:00,
2013-09-06 19:40:00,74.6,66.9,30.12,NNW,331,0.0,1.0,77,0.00,CLR,CLR,0.00,WeatherDisplay:10.37,2013-09-06 23:40:00,
2013-09-06 19:50:00,74.1,66.8,30.12,North,2,0.0,1.0,78,0.00,CLR,CLR,0.00,WeatherDisplay:10.37,2013-09-06 23:50:00,
2013-09-06 20:00:00,73.7,66.4,30.12,NNW,337,0.0,0.0,78,0.00,CLR,CLR,0.00,WeatherDisplay:10.37,2013-09-07 00:00:00,
2013-09-06 20:10:00,73.3,66.0,30.13,WNW,297,0.0,1.0,78,0.00,CLR,CLR,0.00,WeatherDisplay:10.37,2013-09-07 00:10:00,
2013-09-06 20:15:00,73.2,66.3,30.13,WNW,297,0.0,1.0,79,0.00,CLR,CLR,0.00,WeatherDisplay:10.37,2013-09-07 00:15:00,
2013-09-06 20:20:00,73.0,65.7,30.13,WNW,297,0.0,0.0,78,0.00,CLR,CLR,0.00,WeatherDisplay:10.37,2013-09-07 00:20:00,
2013-09-06 20:25:00,72.9,66.0,30.13,WNW,297,0.0,1.0,79,0.00,CLR,CLR,0.00,WeatherDisplay:10.37,2013-09-07 00:25:00,
2013-09-06 20:30:00,72.7,65.8,30.13,WNW,297,0.0,0.0,79,0.00,CLR,CLR,0.00,WeatherDisplay:10.37,2013-09-07 00:30:00,
2013-09-06 20:35:00,72.6,65.7,30.13,WNW,297,0.0,0.0,79,0.00,CLR,CLR,0.00,WeatherDisplay:10.37,2013-09-07 00:35:00,
2013-09-06 20:45:00,72.1,65.3,30.14,West,272,0.0,0.0,79,0.00,CLR,CLR,0.00,WeatherDisplay:10.37,2013-09-07 00:45:00,
2013-09-06 20:55:00,71.7,64.8,30.14,SW,218,0.0,0.0,79,0.00,CLR,CLR,0.00,WeatherDisplay:10.37,2013-09-07 00:55:00,
2013-09-06 21:00:00,71.5,64.6,30.14,SW,218,0.0,0.0,79,0.00,CLR,CLR,0.00,WeatherDisplay:10.37,2013-09-07 01:00:00,
2013-09-06 21:05:00,71.4,64.5,30.14,SW,218,0.0,0.0,79,0.00,CLR,CLR,0.00,WeatherDisplay:10.37,2013-09-07 01:05:00,
2013-09-06 21:15:00,71.0,64.5,30.15,SW,218,0.0,0.0,80,0.00,CLR,CLR,0.00,WeatherDisplay:10.37,2013-09-07 01:15:00,
2013-09-06 21:25:00,70.7,64.6,30.15,SW,218,0.0,0.0,81,0.00,CLR,CLR,0.00,WeatherDisplay:10.37,2013-09-07 01:25:00,
2013-09-06 21:35:00,70.5,64.7,30.15,SW,218,0.0,0.0,82,0.00,CLR,CLR,0.00,WeatherDisplay:10.37,2013-09-07 01:35:00,
2013-09-06 21:40:00,70.3,64.9,30.14,SW,218,0.0,0.0,83,0.00,CLR,CLR,0.00,WeatherDisplay:10.37,2013-09-07 01:40:00,
2013-09-06 21:45:00,70.2,64.8,30.15,SW,218,0.0,0.0,83,0.00,CLR,CLR,0.00,WeatherDisplay:10.37,2013-09-07 01:45:00,
2013-09-06 21:55:00,69.8,64.4,30.15,SW,218,0.0,0.0,83,0.00,CLR,CLR,0.00,WeatherDisplay:10.37,2013-09-07 01:55:00,
2013-09-06 22:00:00,69.7,64.6,30.15,SW,218,0.0,0.0,84,0.00,CLR,CLR,0.00,WeatherDisplay:10.37,2013-09-07 02:00:00,
2013-09-06 22:10:00,69.4,64.7,30.15,SW,218,0.0,0.0,85,0.00,CLR,CLR,0.00,WeatherDisplay:10.37,2013-09-07 02:10:00,
2013-09-06 22:15:00,69.2,64.5,30.15,SW,218,0.0,0.0,85,0.00,CLR,CLR,0.00,WeatherDisplay:10.37,2013-09-07 02:15:00,
2013-09-06 22:20:00,69.0,64.3,30.15,SW,218,0.0,0.0,85,0.00,CLR,CLR,0.00,WeatherDisplay:10.37,2013-09-07 02:20:00,
2013-09-06 22:25:00,68.9,64.2,30.16,SW,218,0.0,1.0,85,0.00,CLR,CLR,0.00,WeatherDisplay:10.37,2013-09-07 02:25:00,
2013-09-06 22:30:00,68.8,64.4,30.16,SW,218,0.0,0.0,86,0.00,CLR,CLR,0.00,WeatherDisplay:10.37,2013-09-07 02:30:00,
2013-09-06 22:40:00,68.4,64.4,30.16,SW,218,0.0,0.0,87,0.00,CLR,CLR,0.00,WeatherDisplay:10.37,2013-09-07 02:40:00,
2013-09-06 22:45:00,68.2,64.2,30.16,SW,218,0.0,0.0,87,0.00,CLR,CLR,0.00,WeatherDisplay:10.37,2013-09-07 02:45:00,
2013-09-06 22:50:00,68.0,64.6,30.16,SW,218,0.0,0.0,89,0.00,CLR,CLR,0.00,WeatherDisplay:10.37,2013-09-07 02:50:00,
2013-09-06 23:00:00,67.7,64.7,30.16,SW,218,0.0,0.0,90,0.00,CLR,CLR,0.00,WeatherDisplay:10.37,2013-09-07 03:00:00,
2013-09-06 23:15:00,67.2,64.5,30.16,SW,218,0.0,0.0,91,0.00,CLR,CLR,0.00,WeatherDisplay:10.37,2013-09-07 03:15:00,
2013-09-06 23:20:00,67.1,64.4,30.16,SW,218,0.0,0.0,91,0.00,CLR,CLR,0.00,WeatherDisplay:10.37,2013-09-07 03:20:00,
2013-09-06 23:30:00,67.0,64.6,30.16,SW,218,0.0,0.0,92,0.00,CLR,CLR,0.00,WeatherDisplay:10.37,2013-09-07 03:30:00,
2013-09-06 23:40:00,66.9,64.5,30.16,SW,218,0.0,1.0,92,0.00,CLR,CLR,0.00,WeatherDisplay:10.37,2013-09-07 03:40:00,
2013-09-06 23:45:00,66.8,64.4,30.16,SW,218,0.0,0.0,92,0.00,CLR,CLR,0.00,WeatherDisplay:10.37,2013-09-07 03:45:00,
2013-09-06 23:50:00,66.6,64.2,30.16,SW,218,0.0,0.0,92,0.00,CLR,CLR,0.00,WeatherDisplay:10.37,2013-09-07 03:50:00,
2013-09-06 23:55:00,66.5,64.4,30.16,SW,218,0.0,0.0,93,0.00,CLR,CLR,0.00,WeatherDisplay:10.37,2013-09-07 03:55:00,